Regional Weather Roundup
Issued by NWS Bismarck, ND

Home | Current Version | Previous Version | Text Only | Print | Product List | Glossary On
Versions: 1 2 3 4 5 6 7 8 9 10 11 12 13 14 15 16 17 18 19 20 21 22 23 24 25 26 27 28 29 30 31 32 33 34 35 36 37 38 39 40 41 42 43 44 45 46 47 48 49 50
254
ASUS43 KBIS 090302
RWRBIS

NWR BROADCAST TEXT
NATIONAL WEATHER SERVICE BISMARCK ND
900 PM CST MON FEB 08 2016

NOTE: "FAIR" INDICATES FEW OR NO CLOUDS BELOW 12,000 FEET WITH NO
SIGNIFICANT WEATHER AND/OR OBSTRUCTIONS TO VISIBILITY.


CITY           SKY/WX    TMP DP  RH WIND       PRES   REMARKS
WILLISTON      CLOUDY    30  21  69 CALM      30.27F
MINOT          CLEAR     21  14  74 W10       30.27R WCI  10
MINOT AFB      CLOUDY    17  15  91 CALM      30.27R
BISMARCK       MOCLDY    28  15  58 N10       30.26S WCI  19
DICKINSON      CLOUDY    29  16  58 N5        30.21F
GARRISON         N/A     17  14  88 N10       30.26R WCI   5
HETTINGER ARPT CLOUDY    31  13  47 N8        30.24F
JAMESTOWN      CLEAR     13   9  84 N10       30.21S WCI   0
CARRINGTON     FAIR      14  12  92 N7        30.24F WCI   4
HAZEN          CLOUDY    28  18  64 N9        30.29R WCI  20
LINTON         CLOUDY    23  18  80 N7        30.26R WCI  15
MANDAN         CLOUDY    27  18  69 N13       30.25S WCI  16
OAKES          FAIR      16  10  79 N14       30.21R WCI   1
STANLEY        CLOUDY    25  23  93 N6        30.27F WCI  18
WATFORD CITY   CLOUDY    28  19  69 CALM      30.27F
$$

CITY           SKY/WX    TMP DP  RH WIND       PRES   REMARKS
GRAND FORKS    PTCLDY     9   2  73 NW18      30.26R WCI -10
GRAND FORKS AF CLOUDY     9   1  71 N18       30.26S WCI -10
DEVILS LAKE    CLEAR      8   5  87 N8        30.25S WCI  -4
FARGO          CLEAR      9   1  70 NW24G32   30.23R WCI -12
GRAFTON        FAIR       7   1  78 NW12G17   30.29F WCI  -9
GWINNER          N/A     14  12  92 N16       30.22R WCI  -2
LANGDON        FAIR       5   1  85 N13       30.22F WCI -12
$$

CITY           SKY/WX    TMP DP  RH WIND       PRES   REMARKS
ABERDEEN       CLEAR     22  11  62 N16       30.21R WCI   8
MOBRIDGE       CLOUDY    32  19  58 N13       30.19S
BUFFALO          N/A     33  12  41 NW5       30.17F
RAPID CITY     CLOUDY    36  17  46 N6        30.23S
GLASGOW        CLOUDY    30  20  66 S3        30.24F
SIDNEY         CLOUDY    30  18  59 CALM      30.27F
WOLF POINT     CLOUDY    27  22  81 NE5       30.26F
GLENDIVE       CLOUDY    27  18  69 CALM      30.26F
MILES CITY     PTCLDY    34  25  69 NW6       30.25S
BAKER          PTCLDY    28  14  55 CALM      30.24F
$$

CITY           SKY/WX    TMP DP  RH WIND       PRES   REMARKS
BILLINGS       CLOUDY    47  27  45 W17       30.31S
GREAT FALLS    CLOUDY    41  28  60 SW13      30.34R
$$





USA.gov is the U.S. government's official web portal to all federal, state and local government web resources and services.